Location: Newark
(23.3970°S, 47.6010°W)
Time: 14:09:16
(UTC+00:00)

deb Explorer IX - Pass Details

Date: 27 February 2020
Orbit: 547 x 1100 km, 38.8° (Epoch: 04 April)

Event Time Altitude Azimuth Distance (km) Brightness Sun altitude
Rises 06:39:52 0° 245° (WSW) 3,923 - -32.3°
Reaches altitude 10° 06:42:49 10° 251° (WSW) 2,953 - -31.7°
Maximum altitude 06:49:37 42° 319° (NW) 1,453 - -30.3°
Exits shadow 06:53:48 21° 18° (NNE) 2,104 ? -29.5°
Drops below altitude 10° 06:55:52 10° 28° (NNE) 2,721 ? -29.0°
Sets 06:58:31 0° 35° (NE) 3,587 ? -28.5°
